Location: LDNL
(36.4545°S, 141.6685°E)
Time: 10:57:34
(UTC+10:00)

Explorer 7 - Pass Details

Date: 15 August 2022
Orbit: 482 x 668 km, 50.3° (Epoch: 26 September)

Event Time Altitude Azimuth Distance (km) Brightness Sun altitude
Rises 22:48:31 0° 227° (SW) 2,940 - -56.8°
Reaches altitude 10° 22:51:10 10° 215° (SW) 1,997 - -57.2°
Maximum altitude 22:55:10 29° 154° (SSE) 1,107 - -57.9°
Drops below altitude 10° 22:58:57 10° 93° (E) 1,880 - -58.5°
Sets 23:01:22 0° 81° (E) 2,736 - -58.8°
